Temperature
20 20 20 20 20 19 19 19 19 19 19 18 18 18 18 18 17 17 17 17 17 17 17 17 17 17 17 17 17 17 17 17 17 17 17 17 17 17 17 17 16 17 17
20 20 19 19 19 19 19 19 19 19 18 18 18 18 18 17 17 17 17 17 17 17 17 17 17 17 17 17 17 16 16 16 16 16 16 17 17 16 17 16 16 16 16
20 19 19 19 19 19 19 19 19 18 18 18 18 18 18 18 17 17 17 17 17 16 16 16 16 16 16 16 16 16 16 16 16 16 16 16 16 16 16 16 16 16 16
20 19 19 19 19 19 18 18 18 18 18 18 18 17 17 17 17 17 17 17 16 16 16 16 16 16 16 16 15 15 15 15 15 15 15 15 15 16 16 16 15 15 15
20 19 19 19 18 18 18 18 18 18 18 17 17 17 17 17 17 17 17 16 16 16 16 16 16 16 16 15 15 15 15 15 15 15 15 15 15 15 15 15 15 15 15
20 19 19 18 18 18 18 18 18 18 17 17 17 17 17 17 17 17 17 16 16 16 16 16 15 15 15 15 15 15 15 15 15 14 14 14 14 14 14 14 14 14 14
19 19 19 18 18 18 18 18 18 17 17 17 17 17 17 17 17 16 16 16 16 16 15 15 15 15 15 15 15 15 14 14 14 14 14 14 14 14 14 14 14 14 14
19 19 18 18 18 18 18 18 17 17 17 17 17 17 17 17 17 16 16 16 16 15 15 15 15 15 15 14 14 14 14 14 14 14 14 14 13 14 14 13 13 13 13
18 18 18 18 18 18 17 17 17 17 17 17 17 16 16 16 16 16 16 15 15 15 15 15 14 14 14 14 14 14 14 14 13 13 13 13 13 13 13 13 13 13 13
18 18 18 17 17 17 17 17 17 17 17 16 16 16 16 16 16 16 15 15 15 14 14 14 14 14 14 14 13 13 13 13 13 13 13 13 13 13 13 13 13 13 12
18 18 17 17 17 17 17 17 16 16 16 16 16 16 16 16 16 15 15 15 14 14 14 14 14 14 14 13 13 13 13 13 13 13 13 13 13 13 13 13 13 13 12
17 17 17 17 17 17 17 16 16 16 16 16 16 16 16 15 15 15 15 14 14 14 13 13 13 13 13 13 13 13 13 12 12 12 12 12 12 12 12 13 13 12 12
17 17 17 17 17 17 16 16 16 16 15 15 15 15 15 15 14 14 14 14 14 13 13 13 13 13 13 13 12 12 12 12 12 12 12 12 12 12 12 12 12 12 12
16 16 16 16 16 16 16 16 16 15 15 15 15 15 14 14 14 14 14 13 13 13 12 12 12 12 12 12 12 12 12 12 11 11 11 12 12 12 12 12 12 12 11
16 16 16 16 16 16 16 16 16 16 15 15 15 15 14 14 14 14 14 13 13 12 12 12 12 12 12 12 12 11 11 11 11 11 11 11 11 11 11 11 11 11 11
15 15 15 15 16 16 16 15 15 15 15 15 15 14 14 14 14 13 13 13 12 12 12 11 11 11 11 11 11 11 11 11 11 11 11 11 11 11 11 11 11 11 11
15 15 15 15 15 15 15 15 15 15 14 14 14 14 14 14 13 13 13 13 12 12 11 11 11 11 11 11 11 11 11 10 10 10 10 10 10 10 10 10 10 10 10
15 15 15 15 15 15 15 15 14 14 14 14 14 14 13 13 13 12 12 12 12 11 11 11 11 11 11 11 10 10 10 10 10 10 10 10 10 10 10 10 10 10 10
15 15 15 15 15 15 14 14 14 14 14 14 13 13 13 13 12 12 12 12 11 11 11 11 11 11 11 10 10 10 10 10 10 10 10 10 10 10 9 9 9 9 9
14 14 14 14 14 14 14 14 14 14 13 13 13 13 13 12 12 12 11 11 11 11 11 10 10 10 10 10 10 10 10 10 10 10 10 10 9 9 9 9 9 9 9
14 14 14 14 14 14 13 13 13 13 13 13 13 12 12 12 12 11 11 11 11 11 10 10 10 10 10 10 10 10 9 9 9 9 9 9 9 9 9 9 9 9 9
13 13 14 14 13 13 13 13 13 13 13 12 12 12 12 11 11 11 11 11 11 10 10 10 10 10 10 9 9 9 9 9 9 9 9 9 9 9 9 9 8 8 8
13 13 13 13 13 13 13 13 13 12 12 12 12 11 11 11 11 10 10 10 10 10 10 10 9 9 9 9 9 9 9 9 9 9 9 9 8 8 8 8 8 8 8
13 13 13 13 13 12 12 12 12 12 12 12 11 11 11 10 10 10 10 10 9 9 9 9 9 9 9 9 8 8 8 8 8 8 8 8 8 8 8 8 8 8 8
12 12 12 12 12 12 12 12 12 11 11 11 11 11 10 10 10 10 9 9 9 9 9 9 8 8 8 8 8 8 8 8 8 8 8 8 8 8 8 7 7 7 7
12 12 12 12 12 12 12 12 11 11 11 11 11 10 10 10 10 9 9 9 9 9 8 8 8 8 8 8 8 8 8 8 8 8 7 7 7 7 7 7 7 7 7
Wind_Speed
7 6 5 6 5 5 3 3 2 2 2 2 2 2 2 3 2 2 2 1 1 1 2 1 2 2 3 3 3 3 2 2 2 3 2 1 1 1 1 1 3 4 6
8 7 6 6 5 5 5 3 3 3 2 2 2 2 3 3 2 2 2 1 1 0 1 1 2 2 2 3 3 4 3 2 2 4 3 3 2 1 1 2 2 2 2
9 8 7 6 6 5 5 4 4 3 3 3 3 3 3 2 2 2 1 1 1 1 1 1 1 1 2 2 2 3 3 3 2 3 3 3 2 2 2 2 2 1 1
8 8 7 7 6 6 5 5 4 4 4 4 3 3 3 3 2 2 2 2 1 1 1 1 1 1 1 3 3 3 3 3 3 3 3 2 1 2 1 1 2 1 1
7 7 7 6 5 5 5 5 4 4 4 3 3 3 3 3 3 3 2 3 2 2 1 1 0 1 1 2 3 3 3 3 3 2 2 2 2 2 2 2 2 2 2
6 6 6 5 5 5 5 5 4 4 4 3 3 3 3 4 2 3 3 2 2 2 2 1 2 1 1 1 2 3 3 3 3 2 2 3 3 3 3 3 3 2 2
5 5 5 6 5 5 6 5 5 4 4 4 4 4 3 2 2 3 3 2 2 2 2 2 3 1 1 1 2 2 3 4 4 3 3 4 4 3 3 4 3 3 4
5 5 5 6 6 5 5 5 5 4 4 4 4 4 3 3 4 3 2 2 2 2 2 1 1 1 2 2 2 2 3 3 4 3 3 4 4 3 3 4 4 4 3
5 5 5 5 5 5 5 5 4 4 4 4 4 4 4 3 4 4 3 2 2 2 2 1 1 0 1 2 2 2 3 3 3 3 3 3 3 3 3 2 3 3 3
4 4 4 5 5 5 5 4 4 3 4 4 3 4 4 4 4 4 3 3 3 2 2 1 1 1 1 0 2 3 3 4 4 5 4 5 5 5 5 3 3 3 3
3 3 3 4 4 5 4 4 4 4 4 4 4 4 4 5 5 6 4 2 2 2 2 2 1 3 2 2 2 3 4 5 5 5 4 3 2 2 2 2 2 3 2
2 3 3 3 4 4 3 4 4 4 4 4 4 4 3 4 5 5 5 3 3 2 1 1 2 2 2 3 3 5 6 5 4 4 3 3 2 1 1 0 1 1 2
2 2 3 3 3 3 4 4 4 4 4 4 3 3 3 2 3 6 6 3 2 1 1 1 2 4 3 4 6 6 5 4 4 3 3 2 2 2 1 1 1 1 1
2 2 2 3 3 3 3 4 4 4 4 3 3 3 3 3 3 2 3 2 2 1 1 2 4 6 5 4 4 4 4 3 3 3 3 2 2 2 2 2 1 1 1
2 2 3 3 3 2 2 1 2 2 3 3 2 2 2 3 3 4 2 2 2 1 1 2 3 3 3 2 2 1 1 2 3 3 3 2 2 2 2 2 1 1 1
2 3 3 3 2 3 3 1 4 2 2 3 2 2 2 4 6 5 3 2 3 3 2 3 3 3 2 2 2 2 2 2 2 3 2 2 2 2 2 1 1 1 1
3 3 3 2 2 3 3 3 2 2 3 3 2 3 4 5 6 5 3 1 2 3 3 4 3 3 3 2 2 2 2 2 2 3 2 2 2 2 2 2 2 2 2
3 2 3 2 2 2 2 3 3 3 2 2 1 3 6 6 6 5 4 2 1 2 3 3 3 3 2 2 2 2 2 2 2 3 2 2 2 2 2 2 2 2 2
3 2 2 2 2 1 1 1 2 2 2 2 2 2 4 4 4 4 5 3 4 3 3 3 2 2 2 2 2 2 2 2 2 3 2 2 1 2 3 3 3 3 3
2 2 2 2 2 2 2 2 2 1 1 1 2 2 3 3 3 3 4 4 4 3 3 3 2 2 2 2 2 2 2 2 2 2 2 2 2 2 2 3 3 3 3
2 2 3 3 2 2 2 2 2 1 1 1 1 2 5 4 4 4 4 4 4 3 3 2 2 2 2 2 1 2 3 2 2 2 2 2 3 3 3 3 3 4 3
3 2 2 2 1 2 3 3 2 2 2 2 1 1 5 4 3 3 3 3 3 2 1 1 2 2 2 1 1 2 3 3 2 2 3 3 3 3 3 3 3 3 3
3 3 2 1 1 2 3 3 2 2 2 2 1 1 2 2 2 2 2 2 2 1 1 1 2 2 1 1 1 1 2 2 2 2 2 3 3 3 2 3 3 4 4
3 3 2 2 2 2 3 3 3 2 2 2 1 1 2 2 2 2 2 2 2 2 2 2 2 3 3 2 1 1 1 2 3 2 2 3 3 3 3 3 3 4 3
3 2 2 2 2 2 1 2 2 2 2 2 2 2 3 3 3 2 2 2 2 2 2 2 2 2 2 2 2 2 2 3 3 3 2 3 3 3 3 4 4 4 4
2 2 2 2 2 2 2 2 2 3 3 2 2 2 3 3 3 2 2 2 2 2 2 2 2 2 3 3 1 2 3 3 3 3 3 3 4 3 3 4 5 5 4
Wind_Direction
175 175 176 179 182 183 189 178 171 182 194 181 177 179 201 221 215 203 238 237 225 279 313 341 339 333 336 335 342 331 337 336 291 298 311 317 317 307 117 237 218 191 197
173 172 179 179 180 183 182 176 173 176 195 182 180 191 212 215 216 215 237 248 254 282 319 339 331 330 350 339 335 331 337 328 301 298 300 308 306 312 242 240 251 247 213
173 173 179 183 183 182 178 175 178 183 194 191 190 199 219 227 215 215 217 229 262 294 302 311 316 344 336 325 318 322 325 323 304 287 291 293 295 326 302 280 275 288 272
175 175 179 186 185 183 179 178 181 185 193 194 203 210 211 210 206 204 215 211 211 251 264 278 297 327 324 322 315 321 310 309 296 287 282 276 279 294 287 286 292 300 294
172 179 184 186 184 182 180 182 183 192 203 192 204 218 212 204 212 195 213 211 199 217 229 230 169 82 334 314 307 324 323 309 300 300 300 309 318 328 313 300 288 283 276
174 181 176 178 184 187 183 187 188 194 203 199 208 215 225 232 200 164 190 226 209 210 212 227 200 167 142 322 337 328 305 289 302 303 301 310 312 321 325 311 303 298 291
174 179 175 180 186 190 193 189 197 198 202 205 208 211 207 193 142 144 167 208 227 213 219 249 274 235 79 329 301 303 309 287 255 251 277 289 294 301 303 301 302 291 278
178 183 183 186 189 188 193 198 200 200 207 213 214 209 194 185 169 164 177 206 231 225 222 249 275 346 338 354 320 335 313 302 276 255 258 273 291 304 290 279 278 292 283
185 187 189 190 193 190 195 200 199 202 208 215 210 197 183 181 184 174 175 213 229 237 222 248 242 132 45 360 309 305 311 314 303 299 274 261 273 297 298 301 295 292 296
188 190 193 192 197 197 197 197 198 205 212 217 207 183 174 174 180 173 188 215 221 227 202 173 121 149 157 0 297 297 296 302 311 302 288 274 260 260 253 242 261 274 290
185 179 189 195 200 196 193 194 197 213 217 213 195 182 181 172 176 178 183 237 247 233 216 206 172 161 187 215 275 286 279 288 288 283 277 273 264 254 229 217 230 245 263
171 184 190 196 213 202 192 200 208 219 213 208 194 190 183 157 159 168 179 215 298 284 257 208 139 158 210 237 256 266 277 289 281 282 285 285 287 290 292 190 184 208 224
200 214 207 202 210 201 196 202 204 212 214 212 196 197 183 158 161 171 186 206 273 286 288 221 186 210 231 245 244 253 268 269 270 277 287 294 306 307 296 278 242 201 230
219 222 207 209 218 215 207 203 204 210 217 213 207 211 185 173 163 168 197 215 236 264 285 267 229 237 253 258 252 250 246 261 267 270 280 287 295 304 302 294 290 264 261
239 235 226 221 214 203 180 202 200 201 211 208 217 194 174 179 172 164 169 197 231 232 237 256 255 251 245 242 248 262 269 264 269 274 276 280 292 303 299 302 317 327 329
244 247 239 227 200 189 168 113 39 56 85 107 108 148 150 148 152 157 175 200 212 182 186 241 252 253 255 259 249 244 241 251 268 274 281 284 279 278 281 292 296 285 290
247 261 259 240 206 197 187 175 161 92 76 77 108 146 159 160 163 175 184 185 224 180 214 239 244 243 250 260 258 254 252 261 266 276 272 267 281 293 291 280 268 262 263
254 264 273 264 246 209 208 202 191 188 179 174 149 164 170 174 180 190 179 149 228 224 236 242 249 250 243 242 246 250 255 258 266 270 262 260 264 279 290 287 275 268 265
264 266 273 271 268 253 238 234 221 215 197 167 149 162 181 184 197 208 191 216 235 235 240 248 256 265 261 252 262 263 262 252 255 268 263 259 262 272 279 284 285 277 271
260 248 255 267 260 263 266 270 262 236 214 167 179 176 160 168 190 200 210 228 240 245 250 250 255 261 263 256 263 271 271 272 274 277 281 261 255 262 265 272 284 285 279
292 268 239 247 251 266 278 275 269 264 256 226 219 171 169 202 212 206 202 213 230 240 250 264 264 263 264 270 281 285 286 282 277 281 284 281 271 266 272 276 273 277 282
301 285 272 263 250 250 260 261 258 248 250 250 250 176 176 209 227 214 217 223 237 234 227 237 257 265 268 274 279 290 294 293 285 285 292 288 281 275 269 270 275 281 290
279 276 271 288 293 272 261 265 264 259 263 264 230 179 191 223 248 252 243 238 237 250 262 274 280 286 290 291 312 325 300 291 292 302 301 300 294 287 283 274 266 277 283
287 292 285 275 264 260 267 269 270 266 266 260 238 202 198 216 237 247 257 263 253 247 249 254 270 286 294 308 315 303 323 339 340 327 318 304 301 303 303 295 282 276 272
276 286 279 278 281 275 275 280 282 282 270 251 231 225 222 221 231 233 241 246 245 250 257 250 250 265 268 280 296 325 37 38 21 349 321 303 292 287 293 288 276 268 268
268 271 274 289 301 298 292 284 279 278 271 257 239 235 240 240 239 237 249 257 260 261 262 262 259 268 271 260 268 84 93 77 42 352 311 292 289 281 282 283 284 279 272
Height
1511 1512 1514 1516 1518 1519 1521 1522 1523 1524 1525 1526 1526 1526 1527 1527 1528 1528 1528 1528 1528 1528 1528 1527 1527 1527 1527 1526 1527 1527 1526 1526 1525 1524 1524 1524 1523 1522 1522 1521 1521 1521 1520
1508 1510 1512 1514 1516 1517 1518 1519 1521 1522 1523 1524 1524 1524 1525 1525 1526 1526 1526 1526 1526 1526 1526 1525 1525 1525 1524 1524 1524 1524 1523 1523 1523 1522 1521 1521 1521 1520 1519 1519 1519 1519 1518
1506 1508 1510 1512 1513 1514 1515 1516 1518 1519 1520 1521 1521 1522 1522 1523 1523 1524 1524 1524 1524 1524 1523 1523 1523 1523 1522 1522 1521 1521 1520 1520 1520 1519 1518 1519 1518 1518 1517 1517 1516 1515 1515
1504 1505 1507 1508 1510 1511 1513 1513 1515 1516 1517 1518 1519 1519 1520 1520 1521 1521 1521 1521 1521 1521 1521 1521 1521 1521 1520 1519 1519 1518 1518 1517 1517 1516 1516 1516 1515 1515 1515 1514 1513 1513 1512
1501 1503 1504 1506 1507 1509 1510 1511 1512 1513 1514 1515 1516 1516 1517 1517 1518 1518 1518 1519 1519 1519 1519 1519 1518 1518 1518 1517 1517 1516 1515 1514 1514 1514 1514 1513 1512 1512 1512 1511 1510 1509 1509
1499 1500 1502 1503 1505 1506 1508 1509 1510 1511 1511 1512 1512 1513 1514 1515 1515 1515 1516 1516 1516 1516 1516 1516 1516 1515 1515 1514 1514 1513 1512 1511 1511 1511 1511 1510 1510 1509 1508 1508 1507 1506 1506
1497 1498 1500 1501 1502 1503 1505 1506 1507 1508 1508 1509 1510 1510 1511 1511 1512 1513 1513 1513 1513 1513 1513 1513 1514 1513 1512 1512 1511 1510 1509 1508 1508 1508 1508 1507 1507 1506 1505 1505 1505 1504 1503
1495 1496 1498 1499 1500 1501 1502 1503 1504 1505 1506 1506 1507 1508 1508 1508 1509 1509 1510 1510 1510 1510 1510 1510 1510 1510 1510 1509 1508 1507 1506 1506 1505 1505 1505 1504 1504 1503 1503 1502 1502 1501 1500
1492 1493 1495 1496 1497 1498 1499 1500 1501 1502 1503 1503 1504 1504 1504 1505 1505 1506 1506 1506 1507 1507 1507 1507 1507 1507 1507 1506 1506 1504 1503 1503 1503 1502 1502 1501 1501 1500 1500 1499 1498 1497 1496
1490 1491 1492 1493 1494 1495 1496 1497 1498 1499 1500 1500 1501 1501 1501 1501 1502 1502 1503 1503 1503 1504 1504 1504 1504 1504 1503 1503 1503 1502 1501 1500 1500 1499 1498 1498 1497 1497 1496 1496 1495 1495 1494
1488 1488 1489 1490 1491 1492 1493 1494 1495 1496 1496 1497 1497 1497 1497 1498 1498 1499 1500 1500 1501 1501 1501 1501 1501 1501 1500 1500 1500 1499 1499 1498 1497 1496 1495 1495 1494 1494 1493 1493 1492 1492 1492
1485 1486 1486 1487 1488 1489 1490 1491 1492 1493 1493 1493 1494 1494 1495 1494 1494 1495 1496 1497 1498 1498 1498 1498 1498 1498 1497 1497 1496 1496 1496 1495 1494 1494 1493 1492 1492 1492 1491 1491 1490 1490 1490
1482 1483 1484 1484 1485 1486 1486 1487 1488 1489 1489 1490 1491 1491 1492 1492 1492 1493 1493 1494 1494 1494 1495 1495 1494 1494 1494 1493 1493 1493 1493 1492 1492 1491 1490 1490 1490 1489 1489 1488 1488 1487 1487
1480 1481 1481 1482 1482 1483 1484 1484 1485 1486 1486 1487 1488 1488 1488 1489 1490 1490 1490 1490 1491 1491 1491 1491 1491 1491 1491 1490 1490 1490 1489 1489 1489 1489 1488 1488 1487 1487 1486 1486 1485 1485 1484
1478 1478 1479 1479 1479 1480 1480 1481 1482 1482 1483 1484 1484 1485 1485 1486 1486 1487 1487 1487 1487 1487 1487 1487 1487 1487 1487 1487 1487 1487 1487 1487 1486 1486 1485 1485 1484 1484 1484 1483 1483 1482 1482
1476 1476 1476 1477 1477 1477 1477 1478 1478 1479 1480 1480 1481 1482 1482 1483 1483 1484 1484 1484 1484 1484 1484 1484 1484 1484 1484 1484 1484 1484 1484 1484 1483 1483 1483 1482 1482 1481 1481 1481 1481 1480 1479
1473 1473 1474 1474 1474 1474 1474 1475 1475 1476 1477 1477 1478 1478 1480 1480 1480 1480 1481 1481 1481 1481 1481 1481 1481 1481 1481 1482 1481 1481 1481 1481 1481 1480 1480 1480 1479 1479 1479 1478 1478 1477 1477
1471 1471 1471 1471 1472 1472 1472 1472 1472 1473 1473 1474 1474 1475 1476 1476 1476 1477 1477 1478 1478 1478 1478 1478 1478 1478 1478 1478 1478 1478 1478 1478 1477 1477 1477 1477 1476 1476 1476 1476 1475 1475 1474
1468 1469 1469 1469 1469 1469 1470 1470 1470 1470 1470 1471 1471 1472 1473 1473 1474 1474 1475 1475 1475 1475 1475 1475 1476 1476 1476 1476 1476 1476 1475 1475 1474 1474 1474 1473 1473 1473 1473 1473 1473 1472 1471
1466 1466 1467 1467 1467 1467 1468 1468 1468 1468 1468 1468 1469 1469 1469 1470 1470 1471 1472 1472 1472 1472 1473 1473 1473 1473 1473 1473 1473 1472 1472 1472 1471 1471 1471 1471 1471 1470 1470 1470 1469 1469 1468
1464 1464 1465 1464 1465 1465 1466 1466 1466 1466 1466 1466 1467 1467 1467 1467 1468 1469 1469 1469 1469 1469 1470 1470 1470 1470 1470 1470 1470 1470 1469 1469 1469 1468 1468 1468 1467 1467 1466 1466 1466 1465 1465
1462 1462 1463 1463 1463 1464 1464 1464 1464 1464 1464 1464 1465 1464 1464 1465 1465 1465 1466 1466 1466 1466 1467 1467 1467 1467 1467 1467 1467 1466 1466 1466 1465 1465 1465 1464 1464 1464 1463 1462 1462 1461 1461
1460 1461 1461 1461 1461 1461 1462 1462 1462 1462 1462 1462 1462 1462 1462 1462 1462 1462 1463 1463 1463 1463 1464 1464 1464 1464 1464 1464 1463 1463 1463 1462 1462 1461 1461 1460 1460 1460 1459 1459 1458 1458 1457
1459 1459 1459 1459 1459 1459 1459 1460 1460 1460 1460 1459 1459 1459 1459 1459 1459 1460 1460 1460 1460 1460 1460 1460 1460 1460 1460 1460 1459 1459 1459 1459 1458 1457 1457 1456 1456 1456 1455 1455 1454 1454 1454
1457 1457 1457 1457 1457 1457 1456 1457 1457 1458 1457 1457 1457 1457 1457 1457 1457 1457 1457 1457 1457 1457 1456 1456 1456 1456 1456 1455 1455 1455 1455 1454 1454 1453 1453 1452 1452 1452 1451 1451 1451 1450 1450
1455 1455 1455 1455 1455 1455 1454 1454 1455 1455 1455 1455 1454 1454 1454 1454 1454 1454 1454 1454 1453 1453 1452 1452 1452 1452 1451 1451 1451 1450 1450 1449 1449 1449 1449 1448 1448 1447 1447 1447 1447 1446 1446